,,PA_Meas_PMT16A,,PR_Meas_QMR101_102,,RH_Meas_QMH101,,SR_Meas_QMS101,,TA_Meas_QMH101,,GenWind,,GenWind,
time,status,PA,status,PR,status,RH,status,SR,status,TA,status,DirAvg,status,SpdAvg,
2013-03-26, 00:00:04,VALID,917.683,VALID,0,VALID,97.412,VALID,0.107441,VALID,19.5873,VALID,128,VALID,0,
2013-03-26, 00:01:04,VALID,917.664,VALID,0,VALID,97.4196,VALID,0,VALID,19.5873,VALID,128,VALID,0,
2013-03-26, 00:02:04,VALID,917.677,VALID,0,VALID,97.4273,VALID,0.107441,VALID,19.5273,VALID,104,VALID,0,
2013-03-26, 00:03:04,VALID,917.674,VALID,0,VALID,97.4349,VALID,0,VALID,19.5273,VALID,41,VALID,0,
2013-03-26, 00:04:04,VALID,917.67,VALID,0,VALID,97.412,VALID,0,VALID,19.4883,VALID,41,VALID,0,
2013-03-26, 00:05:04,VALID,917.65,VALID,0,VALID,97.4273,VALID,0,VALID,19.4883,VALID,41,VALID,0,
2013-03-26, 00:06:04,VALID,917.668,VALID,0,VALID,97.4501,VALID,0,VALID,19.5093,VALID,37,VALID,0,
2013-03-26, 00:07:04,VALID,917.656,VALID,0,VALID,97.4425,VALID,0,VALID,19.5093,VALID,41,VALID,0,
2013-03-26, 00:08:04,VALID,917.672,VALID,0,VALID,97.4349,VALID,0,VALID,19.5078,VALID,30,VALID,0,
2013-03-26, 00:09:04,VALID,917.644,VALID,0,VALID,97.4425,VALID,0,VALID,19.5093,VALID,40,VALID,0,
2013-03-26, 00:10:04,VALID,917.637,VALID,0,VALID,97.4349,VALID,0,VALID,19.4688,VALID,40,VALID,0,
2013-03-26, 00:11:04,VALID,917.601,VALID,0,VALID,97.4501,VALID,0,VALID,19.4898,VALID,40,VALID,0,
2013-03-26, 00:12:04,VALID,917.583,VALID,0,VALID,97.4349,VALID,0,VALID,19.4898,VALID,40,VALID,0,
2013-03-26, 00:13:04,VALID,917.582,VALID,0,VALID,97.4501,VALID,0,VALID,19.4688,VALID,40,VALID,0,
2013-03-26, 00:14:04,VALID,917.559,VALID,0,VALID,97.4425,VALID,0,VALID,19.4703,VALID,97,VALID,0,
2013-03-26, 00:15:04,VALID,917.522,VALID,0,VALID,97.4577,VALID,0,VALID,19.4298,VALID,104,VALID,0,
2013-03-26, 00:16:04,VALID,917.541,VALID,0,VALID,97.4577,VALID,0,VALID,19.4493,VALID,104,VALID,0,
2013-03-26, 00:17:04,VALID,917.51,VALID,0,VALID,97.4577,VALID,0,VALID,19.4298,VALID,104,VALID,0,
2013-03-26, 00:18:04,VALID,917.505,VALID,0,VALID,97.4654,VALID,0,VALID,19.4508,VALID,104,VALID,0,
2013-03-26, 00:19:04,VALID,917.507,VALID,0,VALID,97.4577,VALID,0,VALID,19.4298,VALID,104,VALID,0,
2013-03-26, 00:20:04,VALID,917.491,VALID,0,VALID,97.4577,VALID,0,VALID,19.4493,VALID,104,VALID,0,
2013-03-26, 00:21:04,VALID,917.465,VALID,0,VALID,97.4654,VALID,0,VALID,19.4298,VALID,104,VALID,0,
2013-03-26, 00:22:04,VALID,917.454,VALID,0,VALID,97.4501,VALID,0,VALID,19.4493,VALID,104,VALID,0,
2013-03-26, 00:23:04,VALID,917.418,VALID,0,VALID,97.4806,VALID,0,VALID,19.4508,VALID,104,VALID,0,
2013-03-26, 00:24:04,VALID,917.361,VALID,0,VALID,97.4654,VALID,0,VALID,19.4103,VALID,104,VALID,0,
2013-03-26, 00:25:04,VALID,917.345,VALID,0,VALID,97.4501,VALID,0,VALID,19.4493,VALID,104,VALID,0,
2013-03-26, 00:26:04,VALID,917.319,VALID,0,VALID,97.473,VALID,0,VALID,19.4703,VALID,104,VALID,0,
2013-03-26, 00:27:04,VALID,917.278,VALID,0,VALID,97.4654,VALID,0,VALID,19.4703,VALID,104,VALID,0,
2013-03-26, 00:28:04,VALID,917.271,VALID,0,VALID,97.4577,VALID,0,VALID,19.5093,VALID,99,VALID,0,
2013-03-26, 00:29:04,VALID,917.242,VALID,0,VALID,97.4806,VALID,0,VALID,19.5093,VALID,102,VALID,0,
2013-03-26, 00:30:04,VALID,917.224,VALID,0,VALID,97.4577,VALID,0,VALID,19.4898,VALID,108,VALID,0,
2013-03-26, 00:31:04,VALID,917.178,VALID,0,VALID,97.473,VALID,0,VALID,19.4898,VALID,107,VALID,0,
2013-03-26, 00:32:04,VALID,917.162,VALID,0,VALID,97.4654,VALID,0,VALID,19.4898,VALID,106,VALID,0,
2013-03-26, 00:33:04,VALID,917.123,VALID,0,VALID,97.4654,VALID,0,VALID,19.5093,VALID,105,VALID,0,
2013-03-26, 00:34:04,VALID,917.089,VALID,0,VALID,97.473,VALID,0,VALID,19.5303,VALID,105,VALID,0,
2013-03-26, 00:35:04,VALID,917.029,VALID,0,VALID,97.4654,VALID,0,VALID,19.5288,VALID,105,VALID,0,
2013-03-26, 00:36:04,VALID,917.014,VALID,0,VALID,97.4577,VALID,0,VALID,19.5483,VALID,108,VALID,0,
2013-03-26, 00:37:04,VALID,916.954,VALID,0,VALID,97.4501,VALID,0,VALID,19.5468,VALID,113,VALID,0,
2013-03-26, 00:38:04,VALID,916.906,VALID,0,VALID,97.4501,VALID,0,VALID,19.5483,VALID,113,VALID,0,
2013-03-26, 00:39:04,VALID,916.884,VALID,0,VALID,97.4654,VALID,0,VALID,19.5678,VALID,113,VALID,0,
2013-03-26, 00:40:04,VALID,916.855,VALID,0,VALID,97.4577,VALID,0,VALID,19.5678,VALID,113,VALID,0,
2013-03-26, 00:41:04,VALID,916.833,VALID,0,VALID,97.4577,VALID,0,VALID,19.5483,VALID,113,VALID,0,
2013-03-26, 00:42:04,VALID,916.803,VALID,0,VALID,97.4577,VALID,0,VALID,19.5483,VALID,114,VALID,0,
2013-03-26, 00:43:04,VALID,916.777,VALID,0,VALID,97.4654,VALID,0,VALID,19.5483,VALID,127,VALID,0,
2013-03-26, 00:44:04,VALID,916.762,VALID,0,VALID,97.4425,VALID,0,VALID,19.5678,VALID,127,VALID,0,
2013-03-26, 00:45:04,VALID,916.774,VALID,0,VALID,97.4577,VALID,0,VALID,19.5288,VALID,127,VALID,0,
2013-03-26, 00:46:04,VALID,916.74,VALID,0,VALID,97.4577,VALID,0,VALID,19.4898,VALID,127,VALID,0,
2013-03-26, 00:47:04,VALID,916.722,VALID,0,VALID,97.4501,VALID,0,VALID,19.4898,VALID,127,VALID,0,
2013-03-26, 00:48:04,VALID,916.701,VALID,0,VALID,97.4654,VALID,0,VALID,19.4703,VALID,127,VALID,0,
2013-03-26, 00:49:04,VALID,916.653,VALID,0,VALID,97.4501,VALID,0,VALID,19.4898,VALID,127,VALID,0,
2013-03-26, 00:50:04,VALID,916.62,VALID,0,VALID,97.4577,VALID,0,VALID,19.4703,VALID,127,VALID,0,
2013-03-26, 00:51:04,VALID,916.602,VALID,0,VALID,97.4654,VALID,0,VALID,19.5093,VALID,127,VALID,0,
2013-03-26, 00:52:04,VALID,916.578,VALID,0,VALID,97.473,VALID,0,VALID,19.5093,VALID,127,VALID,0,
2013-03-26, 00:53:04,VALID,916.546,VALID,0,VALID,97.4577,VALID,0,VALID,19.5093,VALID,127,VALID,0,
2013-03-26, 00:54:04,VALID,916.529,VALID,0,VALID,97.4577,VALID,0,VALID,19.5288,VALID,127,VALID,0,
2013-03-26, 00:55:04,VALID,916.506,VALID,0,VALID,97.4577,VALID,0,VALID,19.5093,VALID,127,VALID,0,
2013-03-26, 00:56:04,VALID,916.471,VALID,0,VALID,97.4654,VALID,0,VALID,19.4898,VALID,127,VALID,0,
2013-03-26, 00:57:04,VALID,916.434,VALID,0,VALID,97.4501,VALID,0,VALID,19.4898,VALID,127,VALID,0,
2013-03-26, 00:58:04,VALID,916.397,VALID,0,VALID,97.4577,VALID,0,VALID,19.4493,VALID,127,VALID,0,
2013-03-26, 00:59:04,VALID,916.372,VALID,0,VALID,97.4806,VALID,0,VALID,19.4298,VALID,127,VALID,0,
2013-03-26, 01:00:04,VALID,916.344,VALID,0,VALID,97.4882,VALID,0,VALID,19.4508,VALID,127,VALID,0,
2013-03-26, 01:01:04,VALID,916.33,VALID,0,VALID,97.4806,VALID,0,VALID,19.4703,VALID,127,VALID,0,
2013-03-26, 01:02:04,VALID,916.318,VALID,0,VALID,97.4654,VALID,0,VALID,19.4703,VALID,127,VALID,0,
2013-03-26, 01:03:04,VALID,916.309,VALID,0,VALID,97.4654,VALID,0,VALID,19.4703,VALID,127,VALID,0,
2013-03-26, 01:04:04,VALID,916.33,VALID,0,VALID,97.4577,VALID,0,VALID,19.4703,VALID,127,VALID,0,
2013-03-26, 01:05:04,VALID,916.314,VALID,0,VALID,97.473,VALID,0,VALID,19.4703,VALID,127,VALID,0,
2013-03-26, 01:06:04,VALID,916.309,VALID,0,VALID,97.4806,VALID,0,VALID,19.4703,VALID,127,VALID,0,
2013-03-26, 01:07:04,VALID,916.315,VALID,0,VALID,97.4577,VALID,0,VALID,19.4703,VALID,127,VALID,0,
2013-03-26, 01:08:04,VALID,916.305,VALID,0,VALID,97.4806,VALID,0,VALID,19.4688,VALID,127,VALID,0,
2013-03-26, 01:09:04,VALID,916.292,VALID,0,VALID,97.4654,VALID,0,VALID,19.4898,VALID,127,VALID,0,
2013-03-26, 01:10:04,VALID,916.285,VALID,0,VALID,97.4806,VALID,0,VALID,19.4898,VALID,127,VALID,0,
2013-03-26, 01:11:04,VALID,916.271,VALID,0,VALID,97.4577,VALID,0,VALID,19.5093,VALID,127,VALID,0,
2013-03-26, 01:12:04,VALID,916.282,VALID,0,VALID,97.4882,VALID,0,VALID,19.5093,VALID,127,VALID,0,
2013-03-26, 01:13:04,VALID,916.278,VALID,0,VALID,97.4882,VALID,0,VALID,19.5093,VALID,127,VALID,0,
2013-03-26, 01:14:04,VALID,916.254,VALID,0,VALID,97.473,VALID,0,VALID,19.5093,VALID,112,VALID,0,
2013-03-26, 01:15:04,VALID,916.242,VALID,0,VALID,97.4577,VALID,0,VALID,19.4703,VALID,112,VALID,0,
2013-03-26, 01:16:04,VALID,916.229,VALID,0,VALID,97.4806,VALID,0,VALID,19.4898,VALID,112,VALID,0,
2013-03-26, 01:17:04,VALID,916.212,VALID,0,VALID,97.4806,VALID,0,VALID,19.4898,VALID,112,VALID,0,
2013-03-26, 01:18:04,VALID,916.239,VALID,0,VALID,97.4654,VALID,0,VALID,19.4898,VALID,112,VALID,0,
2013-03-26, 01:19:04,VALID,916.204,VALID,0,VALID,97.4654,VALID,0,VALID,19.4703,VALID,112,VALID,0,
2013-03-26, 01:20:04,VALID,916.157,VALID,0,VALID,97.4654,VALID,0,VALID,19.5093,VALID,112,VALID,0,
2013-03-26, 01:21:04,VALID,916.169,VALID,0,VALID,97.4959,VALID,0,VALID,19.5498,VALID,112,VALID,0,
2013-03-26, 01:22:04,VALID,916.155,VALID,0,VALID,97.4654,VALID,0,VALID,19.4688,VALID,112,VALID,0,
2013-03-26, 01:23:04,VALID,916.159,VALID,0,VALID,97.4654,VALID,0,VALID,19.4103,VALID,112,VALID,0,
2013-03-26, 01:24:04,VALID,916.167,VALID,0,VALID,97.4806,VALID,0,VALID,19.3713,VALID,112,VALID,0,
2013-03-26, 01:25:04,VALID,916.157,VALID,0,VALID,97.4806,VALID,0,VALID,19.3923,VALID,112,VALID,0,
2013-03-26, 01:26:04,VALID,916.16,VALID,0,VALID,97.4806,VALID,0,VALID,19.4118,VALID,112,VALID,0,
2013-03-26, 01:27:04,VALID,916.115,VALID,0,VALID,97.5035,VALID,0,VALID,19.3713,VALID,112,VALID,0,
2013-03-26, 01:28:04,VALID,916.08,VALID,0,VALID,97.4806,VALID,0,VALID,19.3518,VALID,56,VALID,0,
2013-03-26, 01:29:04,VALID,916.062,VALID,0,VALID,97.4806,VALID,0,VALID,19.3533,VALID,56,VALID,0,
2013-03-26, 01:30:04,VALID,916.038,VALID,0,VALID,97.4882,VALID,0,VALID,19.3533,VALID,56,VALID,0,
2013-03-26, 01:31:04,VALID,916.027,VALID,0,VALID,97.4882,VALID,0,VALID,19.3338,VALID,56,VALID,0,
2013-03-26, 01:32:04,VALID,916.027,VALID,0,VALID,97.473,VALID,0,VALID,19.3128,VALID,56,VALID,0,
2013-03-26, 01:33:04,VALID,916.021,VALID,0,VALID,97.473,VALID,0,VALID,19.3143,VALID,56,VALID,0,
2013-03-26, 01:34:04,VALID,915.995,VALID,0,VALID,97.4806,VALID,0,VALID,19.2948,VALID,56,VALID,0,
2013-03-26, 01:35:04,VALID,915.966,VALID,0,VALID,97.5111,VALID,0,VALID,19.2738,VALID,56,VALID,0,
2013-03-26, 01:36:04,VALID,915.948,VALID,0,VALID,97.4882,VALID,0,VALID,19.2738,VALID,56,VALID,0,
2013-03-26, 01:37:04,VALID,915.949,VALID,0,VALID,97.5035,VALID,0,VALID,19.2738,VALID,56,VALID,0,
2013-03-26, 01:38:04,VALID,915.909,VALID,0,VALID,97.5111,VALID,0,VALID,19.2738,VALID,56,VALID,0,
2013-03-26, 01:39:04,VALID,915.896,VALID,0,VALID,97.5035,VALID,0,VALID,19.2738,VALID,56,VALID,0,
2013-03-26, 01:40:04,VALID,915.875,VALID,0,VALID,97.4959,VALID,0,VALID,19.3143,VALID,56,VALID,0,
2013-03-26, 01:41:04,VALID,915.85,VALID,0,VALID,97.5187,VALID,0,VALID,19.2753,VALID,56,VALID,0,
2013-03-26, 01:42:04,VALID,915.792,VALID,0,VALID,97.5187,VALID,0,VALID,19.2753,VALID,56,VALID,0,
2013-03-26, 01:43:04,VALID,915.8,VALID,0,VALID,97.5111,VALID,0,VALID,19.2558,VALID,56,VALID,0,
2013-03-26, 01:44:04,VALID,915.786,VALID,0,VALID,97.5187,VALID,0,VALID,19.2753,VALID,56,VALID,0,
2013-03-26, 01:45:04,VALID,915.779,VALID,0,VALID,97.5187,VALID,0,VALID,19.2753,VALID,56,VALID,0,
2013-03-26, 01:46:04,VALID,915.757,VALID,0,VALID,97.5111,VALID,0,VALID,19.2558,VALID,56,VALID,0,
2013-03-26, 01:47:04,VALID,915.721,VALID,0,VALID,97.5187,VALID,0,VALID,19.2363,VALID,56,VALID,0,
2013-03-26, 01:48:04,VALID,915.725,VALID,0,VALID,97.534,VALID,0,VALID,19.2168,VALID,56,VALID,0,
2013-03-26, 01:49:04,VALID,915.755,VALID,0,VALID,97.534,VALID,0,VALID,19.2168,VALID,56,VALID,0,
2013-03-26, 01:50:04,VALID,915.7,VALID,0,VALID,97.5111,VALID,0,VALID,19.1958,VALID,56,VALID,0,
2013-03-26, 01:51:04,VALID,915.696,VALID,0,VALID,97.5111,VALID,0,VALID,19.2168,VALID,56,VALID,0,
2013-03-26, 01:52:04,VALID,915.701,VALID,0,VALID,97.5264,VALID,0,VALID,19.2363,VALID,56,VALID,0,
2013-03-26, 01:53:04,VALID,915.7,VALID,0,VALID,97.5187,VALID,0,VALID,19.2363,VALID,56,VALID,0,
2013-03-26, 01:54:04,VALID,915.694,VALID,0,VALID,97.534,VALID,0,VALID,19.2153,VALID,56,VALID,0,
2013-03-26, 01:55:04,VALID,915.687,VALID,0,VALID,97.534,VALID,0,VALID,19.2363,VALID,56,VALID,0,
2013-03-26, 01:56:04,VALID,915.674,VALID,0,VALID,97.5416,VALID,0,VALID,19.2558,VALID,56,VALID,0,
2013-03-26, 01:57:04,VALID,915.673,VALID,0,VALID,97.5492,VALID,0,VALID,19.2753,VALID,56,VALID,0,
2013-03-26, 01:58:04,VALID,915.669,VALID,0,VALID,97.5416,VALID,0,VALID,19.2933,VALID,56,VALID,0,
2013-03-26, 01:59:04,VALID,915.668,VALID,0,VALID,97.5492,VALID,0,VALID,19.3338,VALID,56,VALID,0,
2013-03-26, 02:00:04,VALID,915.688,VALID,0,VALID,97.5416,VALID,0,VALID,19.3533,VALID,56,VALID,0,
2013-03-26, 02:01:04,VALID,915.662,VALID,0,VALID,97.534,VALID,0,VALID,19.3533,VALID,56,VALID,0,
2013-03-26, 02:02:04,VALID,915.646,VALID,0,VALID,97.534,VALID,0,VALID,19.3533,VALID,56,VALID,0,
2013-03-26, 02:03:04,VALID,915.66,VALID,0,VALID,97.5187,VALID,0,VALID,19.3128,VALID,56,VALID,0,
2013-03-26, 02:04:04,VALID,915.611,VALID,0,VALID,97.5264,VALID,0,VALID,19.3128,VALID,56,VALID,0,
2013-03-26, 02:05:04,VALID,915.601,VALID,0,VALID,97.5416,VALID,0,VALID,19.2543,VALID,56,VALID,0,
2013-03-26, 02:06:04,VALID,915.609,VALID,0,VALID,97.5187,VALID,0,VALID,19.3143,VALID,56,VALID,0,
2013-03-26, 02:07:04,VALID,915.585,VALID,0,VALID,97.5111,VALID,0,VALID,19.3338,VALID,56,VALID,0,
2013-03-26, 02:08:04,VALID,915.584,VALID,0,VALID,97.5264,VALID,0,VALID,19.3728,VALID,56,VALID,0,
2013-03-26, 02:09:04,VALID,915.57,VALID,0,VALID,97.5264,VALID,0,VALID,19.3533,VALID,56,VALID,0,
2013-03-26, 02:10:04,VALID,915.569,VALID,0,VALID,97.5416,VALID,0,VALID,19.2738,VALID,56,VALID,0,
2013-03-26, 02:11:04,VALID,915.563,VALID,0,VALID,97.5264,VALID,0,VALID,19.2348,VALID,56,VALID,0,
2013-03-26, 02:12:04,VALID,915.556,VALID,0,VALID,97.5264,VALID,0,VALID,19.2738,VALID,56,VALID,0,
2013-03-26, 02:13:04,VALID,915.557,VALID,0,VALID,97.5035,VALID,0,VALID,19.3143,VALID,56,VALID,0,
2013-03-26, 02:14:04,VALID,915.542,VALID,0,VALID,97.5264,VALID,0,VALID,19.3338,VALID,56,VALID,0,
2013-03-26, 02:15:04,VALID,915.528,VALID,0,VALID,97.534,VALID,0,VALID,19.3338,VALID,56,VALID,0,
2013-03-26, 02:16:04,VALID,915.523,VALID,0,VALID,97.5111,VALID,0,VALID,19.3143,VALID,56,VALID,0,
2013-03-26, 02:17:04,VALID,915.522,VALID,0,VALID,97.534,VALID,0,VALID,19.3143,VALID,101,VALID,0,
2013-03-26, 02:18:04,VALID,915.506,VALID,0,VALID,97.5187,VALID,0,VALID,19.2738,VALID,101,VALID,0,
2013-03-26, 02:19:04,VALID,915.492,VALID,0,VALID,97.534,VALID,0,VALID,19.3352,VALID,101,VALID,0,
2013-03-26, 02:20:04,VALID,915.491,VALID,0,VALID,97.5187,VALID,0,VALID,19.2948,VALID,101,VALID,0,
2013-03-26, 02:21:04,VALID,915.518,VALID,0,VALID,97.5264,VALID,0,VALID,19.2753,VALID,101,VALID,0,
2013-03-26, 02:22:04,VALID,915.5,VALID,0,VALID,97.5264,VALID,0,VALID,19.3143,VALID,101,VALID,0,
2013-03-26, 02:23:04,VALID,915.492,VALID,0,VALID,97.534,VALID,0,VALID,19.2948,VALID,101,VALID,0,
2013-03-26, 02:24:04,VALID,915.477,VALID,0,VALID,97.5264,VALID,0,VALID,19.2753,VALID,101,VALID,0,
2013-03-26, 02:25:04,VALID,915.469,VALID,0,VALID,97.5187,VALID,0,VALID,19.2753,VALID,101,VALID,0,
2013-03-26, 02:26:04,VALID,915.452,VALID,0,VALID,97.5187,VALID,0,VALID,19.2948,VALID,101,VALID,0,
2013-03-26, 02:27:04,VALID,915.416,VALID,0,VALID,97.5111,VALID,0,VALID,19.2933,VALID,101,VALID,0,
2013-03-26, 02:28:04,VALID,915.416,VALID,0,VALID,97.5416,VALID,0,VALID,19.3143,VALID,101,VALID,0,
2013-03-26, 02:29:04,VALID,915.432,VALID,0,VALID,97.5035,VALID,0,VALID,19.2738,VALID,101,VALID,0,
2013-03-26, 02:30:04,VALID,915.412,VALID,0,VALID,97.5187,VALID,0,VALID,19.2558,VALID,101,VALID,0,
2013-03-26, 02:31:04,VALID,915.419,VALID,0,VALID,97.534,VALID,0,VALID,19.1973,VALID,101,VALID,0,
2013-03-26, 02:32:04,VALID,915.423,VALID,0,VALID,97.5264,VALID,0,VALID,19.2348,VALID,101,VALID,0,
2013-03-26, 02:33:04,VALID,915.407,VALID,0,VALID,97.534,VALID,0,VALID,19.2753,VALID,101,VALID,0,
2013-03-26, 02:34:04,VALID,915.429,VALID,0,VALID,97.5264,VALID,0,VALID,19.2948,VALID,101,VALID,0,
2013-03-26, 02:35:04,VALID,915.439,VALID,0,VALID,97.534,VALID,0,VALID,19.2363,VALID,101,VALID,0,
2013-03-26, 02:36:04,VALID,915.421,VALID,0,VALID,97.5416,VALID,0,VALID,19.2738,VALID,45,VALID,0,
2013-03-26, 02:37:04,VALID,915.415,VALID,0,VALID,97.5187,VALID,0,VALID,19.3352,VALID,45,VALID,0,
2013-03-26, 02:38:04,VALID,915.419,VALID,0,VALID,97.5187,VALID,0,VALID,19.2738,VALID,45,VALID,0,
2013-03-26, 02:39:04,VALID,915.393,VALID,0,VALID,97.534,VALID,0,VALID,19.2948,VALID,45,VALID,0,
2013-03-26, 02:40:04,VALID,915.417,VALID,0,VALID,97.5264,VALID,0,VALID,19.2933,VALID,45,VALID,0,
2013-03-26, 02:41:04,VALID,915.4,VALID,0,VALID,97.534,VALID,0,VALID,19.3728,VALID,45,VALID,0,
2013-03-26, 02:42:04,VALID,915.393,VALID,0,VALID,97.5111,VALID,0,VALID,19.3728,VALID,45,VALID,0,
2013-03-26, 02:43:04,VALID,915.383,VALID,0,VALID,97.5187,VALID,0,VALID,19.3728,VALID,31,VALID,0,
2013-03-26, 02:44:04,VALID,915.383,VALID,0,VALID,97.5187,VALID,0,VALID,19.3728,VALID,31,VALID,0,
2013-03-26, 02:45:04,VALID,915.387,VALID,0,VALID,97.5264,VALID,0,VALID,19.3923,VALID,31,VALID,0,
2013-03-26, 02:46:04,VALID,915.392,VALID,0,VALID,97.5187,VALID,0,VALID,19.4298,VALID,31,VALID,0,
2013-03-26, 02:47:04,VALID,915.363,VALID,0,VALID,97.5035,VALID,0,VALID,19.4493,VALID,31,VALID,0,
2013-03-26, 02:48:04,VALID,915.359,VALID,0,VALID,97.5035,VALID,0,VALID,19.4898,VALID,31,VALID,0,
2013-03-26, 02:49:04,VALID,915.352,VALID,0,VALID,97.5111,VALID,0,VALID,19.4898,VALID,31,VALID,0,
2013-03-26, 02:50:04,VALID,915.349,VALID,0,VALID,97.5264,VALID,0,VALID,19.4703,VALID,11,VALID,0,
2013-03-26, 02:51:04,VALID,915.324,VALID,0,VALID,97.5111,VALID,0,VALID,19.4883,VALID,11,VALID,0,
2013-03-26, 02:52:04,VALID,915.338,VALID,0,VALID,97.5111,VALID,0,VALID,19.5678,VALID,11,VALID,0,
2013-03-26, 02:53:04,VALID,915.322,VALID,0,VALID,97.5035,VALID,0,VALID,19.5873,VALID,11,VALID,0,
2013-03-26, 02:54:04,VALID,915.306,VALID,0,VALID,97.4959,VALID,0,VALID,19.6263,VALID,11,VALID,0,
2013-03-26, 02:55:04,VALID,915.303,VALID,0,VALID,97.4882,VALID,0,VALID,19.6638,VALID,11,VALID,0,
2013-03-26, 02:56:04,VALID,915.296,VALID,0,VALID,97.4959,VALID,0,VALID,19.7043,VALID,11,VALID,0,
2013-03-26, 02:57:04,VALID,915.289,VALID,0,VALID,97.5035,VALID,0,VALID,19.7433,VALID,11,VALID,0,
2013-03-26, 02:58:04,VALID,915.251,VALID,0,VALID,97.4882,VALID,0,VALID,19.7628,VALID,11,VALID,0,
2013-03-26, 02:59:04,VALID,915.209,VALID,0,VALID,97.4806,VALID,0,VALID,19.7433,VALID,11,VALID,0,
2013-03-26, 03:00:04,VALID,915.207,VALID,0,VALID,97.4882,VALID,0,VALID,19.8018,VALID,11,VALID,0,
2013-03-26, 03:01:04,VALID,915.176,VALID,0,VALID,97.4882,VALID,0,VALID,19.8003,VALID,11,VALID,0,
2013-03-26, 03:02:04,VALID,915.177,VALID,0,VALID,97.473,VALID,0,VALID,19.8018,VALID,11,VALID,0,
2013-03-26, 03:03:04,VALID,915.154,VALID,0,VALID,97.4501,VALID,0,VALID,19.7823,VALID,11,VALID,0,
2013-03-26, 03:04:04,VALID,915.176,VALID,0,VALID,97.4654,VALID,0,VALID,19.8213,VALID,11,VALID,0,
2013-03-26, 03:05:04,VALID,915.174,VALID,0,VALID,97.4577,VALID,0,VALID,19.8783,VALID,11,VALID,0,
2013-03-26, 03:06:04,VALID,915.172,VALID,0,VALID,97.4806,VALID,0,VALID,19.8978,VALID,11,VALID,0,
2013-03-26, 03:07:04,VALID,915.16,VALID,0,VALID,97.4501,VALID,0,VALID,19.9578,VALID,11,VALID,0,
2013-03-26, 03:08:04,VALID,915.162,VALID,0,VALID,97.4501,VALID,0,VALID,19.9773,VALID,11,VALID,0,
2013-03-26, 03:09:04,VALID,915.194,VALID,0,VALID,97.4501,VALID,0,VALID,19.9563,VALID,11,VALID,0,
2013-03-26, 03:10:04,VALID,915.194,VALID,0,VALID,97.4349,VALID,0,VALID,19.9758,VALID,11,VALID,0,
2013-03-26, 03:11:04,VALID,915.191,VALID,0,VALID,97.4501,VALID,0,VALID,19.9758,VALID,11,VALID,0,
2013-03-26, 03:12:04,VALID,915.178,VALID,0,VALID,97.4349,VALID,0,VALID,20.0163,VALID,11,VALID,0,
2013-03-26, 03:13:04,VALID,915.188,VALID,0.2,VALID,97.4501,VALID,0,VALID,19.9758,VALID,11,VALID,0,
2013-03-26, 03:14:04,VALID,915.196,VALID,0,VALID,97.4425,VALID,0,VALID,19.9953,VALID,11,VALID,0,
2013-03-26, 03:15:04,VALID,915.196,VALID,0,VALID,97.4425,VALID,0,VALID,19.9758,VALID,11,VALID,0,
2013-03-26, 03:16:04,VALID,915.186,VALID,0,VALID,97.4273,VALID,0,VALID,19.9563,VALID,11,VALID,0,
2013-03-26, 03:17:04,VALID,915.164,VALID,0,VALID,97.4501,VALID,0,VALID,19.8978,VALID,11,VALID,0,
2013-03-26, 03:18:04,VALID,915.153,VALID,0,VALID,97.4654,VALID,0,VALID,19.8798,VALID,11,VALID,0,
2013-03-26, 03:19:04,VALID,915.126,VALID,0,VALID,97.4577,VALID,0,VALID,19.8408,VALID,60,VALID,0,
2013-03-26, 03:20:04,VALID,915.102,VALID,0,VALID,97.4501,VALID,0,VALID,19.8018,VALID,60,VALID,0,
2013-03-26, 03:21:04,VALID,915.078,VALID,0,VALID,97.4501,VALID,0,VALID,19.7418,VALID,60,VALID,0,
2013-03-26, 03:22:04,VALID,915.081,VALID,0,VALID,97.4501,VALID,0,VALID,19.7433,VALID,60,VALID,0,
2013-03-26, 03:23:04,VALID,915.082,VALID,0,VALID,97.4577,VALID,0,VALID,19.6248,VALID,158,VALID,0,
2013-03-26, 03:24:04,VALID,915.078,VALID,0,VALID,97.473,VALID,0,VALID,19.5873,VALID,158,VALID,0,
2013-03-26, 03:25:04,VALID,915.061,VALID,0,VALID,97.4425,VALID,0,VALID,19.5288,VALID,158,VALID,0,
2013-03-26, 03:26:04,VALID,915.052,VALID,0,VALID,97.4577,VALID,0,VALID,19.4688,VALID,158,VALID,0,
2013-03-26, 03:27:04,VALID,915.046,VALID,0,VALID,97.4959,VALID,0,VALID,19.4313,VALID,158,VALID,0,
2013-03-26, 03:28:04,VALID,915.026,VALID,0,VALID,97.473,VALID,0,VALID,19.3713,VALID,158,VALID,0,
2013-03-26, 03:29:04,VALID,914.987,VALID,0,VALID,97.473,VALID,0,VALID,19.3728,VALID,156,VALID,0,
2013-03-26, 03:30:04,VALID,914.961,VALID,0,VALID,97.4959,VALID,0,VALID,19.3533,VALID,156,VALID,0,
2013-03-26, 03:31:04,VALID,914.977,VALID,0,VALID,97.4959,VALID,0,VALID,19.3143,VALID,156,VALID,0,
2013-03-26, 03:32:04,VALID,914.952,VALID,0,VALID,97.5111,VALID,0,VALID,19.2948,VALID,156,VALID,0,
2013-03-26, 03:33:04,VALID,914.98,VALID,0,VALID,97.5187,VALID,0,VALID,19.2948,VALID,152,VALID,0,
2013-03-26, 03:34:04,VALID,914.938,VALID,0,VALID,97.5187,VALID,0,VALID,19.2948,VALID,140,VALID,0,
2013-03-26, 03:35:04,VALID,914.964,VALID,0,VALID,97.5111,VALID,0,VALID,19.2948,VALID,140,VALID,0,
2013-03-26, 03:36:04,VALID,914.99,VALID,0,VALID,97.5111,VALID,0,VALID,19.2738,VALID,140,VALID,0,
2013-03-26, 03:37:04,VALID,914.976,VALID,0,VALID,97.5035,VALID,0,VALID,19.2962,VALID,147,VALID,0,
2013-03-26, 03:38:04,VALID,914.974,VALID,0,VALID,97.5187,VALID,0,VALID,19.2543,VALID,147,VALID,0,
2013-03-26, 03:39:04,VALID,914.955,VALID,0,VALID,97.5035,VALID,0,VALID,19.2753,VALID,154,VALID,0,
2013-03-26, 03:40:04,VALID,914.946,VALID,0,VALID,97.5111,VALID,0,VALID,19.2738,VALID,172,VALID,0,
2013-03-26, 03:41:04,VALID,914.887,VALID,0,VALID,97.5187,VALID,0,VALID,19.3518,VALID,172,VALID,0,
2013-03-26, 03:42:04,VALID,914.885,VALID,0,VALID,97.534,VALID,0,VALID,19.3728,VALID,172,VALID,0,
2013-03-26, 03:43:04,VALID,914.854,VALID,0,VALID,97.4959,VALID,0,VALID,19.4118,VALID,172,VALID,0,
2013-03-26, 03:44:04,VALID,914.861,VALID,0,VALID,97.5035,VALID,0,VALID,19.3923,VALID,170,VALID,0,
2013-03-26, 03:45:04,VALID,914.838,VALID,0,VALID,97.5264,VALID,0,VALID,19.3923,VALID,170,VALID,0,
2013-03-26, 03:46:04,VALID,914.801,VALID,0,VALID,97.5035,VALID,0,VALID,19.4118,VALID,168,VALID,0,
2013-03-26, 03:47:04,VALID,914.821,VALID,0,VALID,97.5111,VALID,0,VALID,19.3908,VALID,169,VALID,0,
2013-03-26, 03:48:04,VALID,914.828,VALID,0,VALID,97.5111,VALID,0,VALID,19.3728,VALID,167,VALID,0,
2013-03-26, 03:49:04,VALID,914.826,VALID,0,VALID,97.5187,VALID,0,VALID,19.3533,VALID,166,VALID,0,
2013-03-26, 03:50:04,VALID,914.805,VALID,0,VALID,97.534,VALID,0,VALID,19.3143,VALID,154,VALID,0,
2013-03-26, 03:51:04,VALID,914.805,VALID,0,VALID,97.5492,VALID,0,VALID,19.2738,VALID,153,VALID,0,
2013-03-26, 03:52:04,VALID,914.812,VALID,0,VALID,97.534,VALID,0,VALID,19.2753,VALID,153,VALID,0,
2013-03-26, 03:53:04,VALID,914.807,VALID,0,VALID,97.5264,VALID,0,VALID,19.2363,VALID,153,VALID,0,
2013-03-26, 03:54:04,VALID,914.8,VALID,0,VALID,97.5492,VALID,0,VALID,19.2168,VALID,153,VALID,0,
2013-03-26, 03:55:04,VALID,914.783,VALID,0,VALID,97.5416,VALID,0,VALID,19.2168,VALID,153,VALID,0,
2013-03-26, 03:56:04,VALID,914.798,VALID,0,VALID,97.5569,VALID,0,VALID,19.2168,VALID,153,VALID,0,
2013-03-26, 03:57:04,VALID,914.756,VALID,0,VALID,97.5416,VALID,0,VALID,19.2558,VALID,153,VALID,0,
2013-03-26, 03:58:04,VALID,914.702,VALID,0,VALID,97.5264,VALID,0,VALID,19.2767,VALID,167,VALID,0,
2013-03-26, 03:59:04,VALID,914.731,VALID,0,VALID,97.534,VALID,0,VALID,19.2558,VALID,166,VALID,0,
2013-03-26, 04:00:04,VALID,914.7,VALID,0,VALID,97.5492,VALID,0,VALID,19.2363,VALID,166,VALID,0,
2013-03-26, 04:01:04,VALID,914.708,VALID,0,VALID,97.534,VALID,0,VALID,19.2168,VALID,166,VALID,0,